Weather History for KBKL - November, 2011

Change the Weather History Date:

Saturday, November 19, 2011

  Actual Average Record
Temperature  
Mean Temperature 52 °F -  
Max Temperature 60 °F 47 °F 64 °F (1999)
Min Temperature 44 °F 36 °F 14 °F (2014)
Degree Days  
Heating Degree Days 13    
Growing Degree Days 2 (Base 50)    
Moisture  
Dew Point 30 °F    
Average Humidity 45    
Maximum Humidity 66    
Minimum Humidity 31    
Precipitation  
Precipitation 0.01 in - - ()
Sea Level Pressure  
Sea Level Pressure 30.06 in    
Wind  
Wind Speed 15 mph (South)    
Max Wind Speed 23 mph    
Max Gust Speed 33 mph    
Visibility 10 miles    
Events Rain    
Averages and records for this station are not official NWS values.
T = Trace of Precipitation, MM = Missing Value Source: NWS Daily Summary

Daily Weather History Graph

Daily Weather History Graph

Search for Another Location

Airport or City:

Trip Planner

Search our weather history database for the weather conditions in past years. The results will help you decide how hot, cold, wet, or windy it might be!

Date:

Astronomy

Nov. 19, 2011 Rise Set
Actual Time 7:19 AM EST 5:03 PM EST
Civil Twilight 6:49 AM EST 5:33 PM EST
Nautical Twilight 6:16 AM EST 6:07 PM EST
Astronomical Twilight 5:43 AM EST 6:40 PM EST
Moon 12:34 AM EST (11/19) 1:24 PM EST (11/19)
Length of Visible Light 10h 44m
Length of Day
9h 43m
Last Quarter, 38% of the Moon is Illuminated
Nov 19
Last Quarter
Nov 25
New
Dec 2
First Quarter
Dec 10
Full
Dec 17
Last Quarter

Hourly Weather History & Observations

Time (EST) Temp. Windchill Dew Point Humidity Pressure Visibility Wind Dir Wind Speed Gust Speed Precip Events Conditions
12:53 AM 45.0 °F 37.1 °F 17.1 °F 33% 30.10 in 10.0 mi South 19.6 mph 26.5 mph N/A   Overcast
1:53 AM 46.0 °F 39.0 °F 17.1 °F 31% 30.09 in 10.0 mi South 17.3 mph 25.3 mph N/A   Mostly Cloudy
2:53 AM 46.9 °F - 18.0 °F 32% 30.12 in 10.0 mi South 11.5 mph - N/A   Overcast
3:53 AM 46.9 °F - 19.0 °F 33% 30.11 in 10.0 mi South 16.1 mph - N/A   Scattered Clouds
4:53 AM 46.0 °F 41.0 °F 19.9 °F 35% 30.12 in 10.0 mi SSW 10.4 mph - N/A   Clear
5:53 AM 46.0 °F 41.0 °F 21.0 °F 37% 30.16 in 10.0 mi South 10.4 mph - N/A   Clear
6:53 AM 45.0 °F 39.3 °F 21.9 °F 40% 30.16 in 10.0 mi South 11.5 mph - N/A   Clear
7:53 AM 44.1 °F 39.5 °F 23.0 °F 43% 30.15 in 10.0 mi South 8.1 mph 17.3 mph N/A   Clear
8:53 AM 46.0 °F 39.9 °F 25.0 °F 44% 30.16 in 10.0 mi South 13.8 mph 20.7 mph N/A   Clear
9:53 AM 48.0 °F - 27.0 °F 44% 30.15 in 10.0 mi South 13.8 mph 23.0 mph N/A   Clear
10:53 AM 50.0 °F - 28.0 °F 43% 30.14 in 10.0 mi South 12.7 mph 25.3 mph N/A   Clear
11:53 AM 54.0 °F - 30.0 °F 40% 30.09 in 10.0 mi South 15.0 mph 26.5 mph N/A   Clear
12:53 PM 54.0 °F - 32.0 °F 43% 30.08 in 10.0 mi South 20.7 mph 29.9 mph N/A   Clear
1:53 PM 55.0 °F - 33.1 °F 43% 30.05 in 10.0 mi South 13.8 mph 25.3 mph N/A   Overcast
2:53 PM 54.0 °F - 35.1 °F 49% 30.06 in 10.0 mi SSW 16.1 mph 23.0 mph N/A   Overcast
3:53 PM 53.6 °F - 37.4 °F 54% 30.04 in 10.0 mi South 11.5 mph 19.6 mph N/A   Overcast
4:53 PM 52.0 °F - 41.0 °F 66% 30.03 in 10.0 mi South 9.2 mph 21.9 mph 0.01 in Rain Light Rain
5:53 PM 52.0 °F - 39.9 °F 63% 30.00 in 10.0 mi SSE 11.5 mph - 0.00 in   Overcast
6:53 PM 54.0 °F - 39.0 °F 57% 29.99 in 10.0 mi South 17.3 mph 25.3 mph N/A   Overcast
7:53 PM 55.4 °F - 39.2 °F 54% 29.95 in 10.0 mi South 19.6 mph 32.2 mph N/A   Mostly Cloudy
8:53 PM 57.9 °F - 39.0 °F 49% 29.93 in 10.0 mi South 17.3 mph 31.1 mph N/A   Partly Cloudy
9:53 PM 59.0 °F - 39.9 °F 49% 29.93 in 10.0 mi South 21.9 mph 33.4 mph N/A   Overcast
10:53 PM 60.1 °F - 41.0 °F 49% 29.92 in 10.0 mi South 23.0 mph 33.4 mph N/A   Overcast
11:53 PM 59.0 °F - 42.8 °F 55% 29.93 in 10.0 mi South 17.3 mph 29.9 mph N/A   Overcast